Regional Weather Roundup
Issued by NWS New Orleans/Baton Rouge, LA

Home | Current Version | Previous Version | Text Only | Print | Product List | Glossary On
Versions: 1 2 3 4 5 6 7 8 9 10 11 12 13 14 15 16 17 18 19 20 21 22 23 24 25 26 27 28 29 30 31 32 33 34 35 36 37 38 39 40 41 42 43 44 45 46 47 48 49 50
000
ASUS44 KLIX 260812
RWRLIX
NEW ORLEANS REGIONAL WEATHER ROUNDUP
NATIONAL WEATHER SERVICE NEW ORLEANS LA
300 AM CDT TUE MAY 26 2015

NOTE: "FAIR" INDICATES FEW OR NO CLOUDS BELOW 12,000 FEET WITH NO
      SIGNIFICANT WEATHER AND/OR OBSTRUCTIONS TO VISIBILITY.
      SKY/WX - SKY CONDITION AND SIGNIFICANT WEATHER.
      TMP - AIR TEMPERATURE.     DP    - DEWPOINT TEMPERATURE.
      RH  - RELATIVE HUMIDITY.   PRES  - PRESSURE.
      HI  - HEAT INDEX.          WCI   - WIND CHILL INDEX.

*  THESE STATIONS ARE NOT NWS OR FAA STATIONS AND ARE NOT UNDER
   NWS QUALITY CONTROL.

LAZ038-040-048-061>063-065>067-069-260900-
SOUTHEAST LOUISIANA

CITY           SKY/WX    TMP DP  RH WIND       PRES   REMARKS
N.O. AUDUBON   NOT AVBL
N.O. INTL ARPT MOCLDY    78  74  87 SE7       30.02F
N.O. LAKEFRONT MOCLDY    80  75  84 SE10      30.03F
SLIDELL        CLOUDY    76  75  97 CALM      30.02F
BATON ROUGE    HVY RAIN  64  62  93 NW6       30.11R FOG
BOOTHVILLE     PTCLDY    78  76  93 SE5       30.06F
BELLE CHASSE   MOCLDY    78  75  90 S8        30.03F
BOGALUSA*      LGT RAIN  73  68  84 S3        30.05F
GALLIANO*      CLOUDY    82  75  80 S7        30.04F
NEW ROADS*     RAIN      64  63  94 N5        30.11S
GONZALES*      CLOUDY    65  65 100 NW13G28   30.09R
HAMMOND*       CLOUDY    73  68  83 CALM      30.04F
HOUMA*         MOCLDY    80  76  88 S10G17    30.03F
PORT FOURCHON* PTSUNNY   81  77  89 SE10G17   30.05F

$$

MSZ070-080>082-260900-
SOUTHERN MISSISSIPPI

CITY           SKY/WX    TMP DP  RH WIND       PRES   REMARKS
MCCOMB         TSTM      63  63 100 N10G22    30.12R VSB 3/4
GULFPORT       MOCLDY    79  75  87 SE13      30.04F
BILOXI         NOT AVBL
PASCAGOULA     MOCLDY    78  75  90 S9        30.05F

$$

COASTAL OBSERVATIONS
LAKE AND NEARSHORE STATIONS

STATION/POSITION TIME  TEMP    WIND        PRES    WAVE
                       AIR SEA DIR/SP/G            HT/PER
                 (UTC) (F)     (DEG/KT/KT) (MB)    (FT/S)
PASCAGOULA       0700   80     160/ 10/ 16 1017.9
WAVELAND YACHT   0700   80 78  180/  8/ 14 1017.9
GRAND ISLE       0700   81 83  160/  9/ 14 1017.7
SOUTHWEST PASS   0700   80 75  150/ 11/ 15 1018.4
NEW CANAL        0700   77 80   CALM  /  1 1016.6
SHELL BEACH      0700   80 81  150/ 10/ 13 1017.2

OFFSHORE STATIONS

STATION/POSITION TIME  TEMP    WIND        PRES    WAVE
                       AIR SEA DIR/SP/G            HT/PER
                 (UTC) (F)     (DEG/KT/KT) (MB)    (FT/S)
64 S DAUPHIN ISL 0750   80 80  130/ 14/ 16 1018.3    4/ 7

$$




USA.gov is the U.S. government's official web portal to all federal, state and local government web resources and services.